Time,TemperatureF,DewpointF,PressureIn,WindDirection,WindDirectionDegrees,WindSpeedMPH,WindSpeedGustMPH,Humidity,HourlyPrecipIn,Conditions,Clouds,dailyrainin,SoftwareType,DateUTC
2013-02-27 00:00:00,76.3,53.4,29.87,SSW,202,2.0,9.0,45,0.00,,,-99.99,WeatherLink 5.5,2013-02-27 05:00:00,
2013-02-27 00:05:00,76.4,54.7,29.87,SSW,202,3.0,9.0,47,0.00,,,-99.99,WeatherLink 5.5,2013-02-27 05:05:00,
2013-02-27 00:15:00,76.4,55.8,29.87,SSW,202,1.0,6.0,49,0.00,,,-99.99,WeatherLink 5.5,2013-02-27 05:15:00,
2013-02-27 00:25:00,76.4,56.9,29.86,SSW,202,2.0,7.0,51,0.00,,,-99.99,WeatherLink 5.5,2013-02-27 05:25:00,
2013-02-27 00:35:00,76.3,58.9,29.86,SSW,202,4.0,10.0,55,0.00,,,-99.99,WeatherLink 5.5,2013-02-27 05:35:00,
2013-02-27 00:40:00,76.2,59.9,29.86,SSW,202,3.0,8.0,57,0.00,,,-99.99,WeatherLink 5.5,2013-02-27 05:40:00,
2013-02-27 00:45:00,76.2,59.9,29.86,SSW,202,3.0,8.0,57,0.00,,,-99.99,WeatherLink 5.5,2013-02-27 05:45:00,
2013-02-27 00:55:00,76.1,60.7,29.86,South,180,3.0,8.0,59,0.00,,,-99.99,WeatherLink 5.5,2013-02-27 05:55:00,
2013-02-27 01:00:00,76.1,61.2,29.86,SSW,202,4.0,12.0,60,0.00,,,-99.99,WeatherLink 5.5,2013-02-27 06:00:00,
2013-02-27 01:10:00,76.0,61.6,29.85,SSW,202,3.0,9.0,61,0.00,,,-99.99,WeatherLink 5.5,2013-02-27 06:10:00,
2013-02-27 01:15:00,76.0,61.6,29.85,SSW,202,3.0,9.0,61,0.00,,,-99.99,WeatherLink 5.5,2013-02-27 06:15:00,
2013-02-27 01:25:00,75.8,62.8,29.86,SSW,202,2.0,7.0,64,0.00,,,-99.99,WeatherLink 5.5,2013-02-27 06:25:00,
2013-02-27 01:35:00,75.9,62.8,29.86,SSW,202,2.0,9.0,64,0.00,,,-99.99,WeatherLink 5.5,2013-02-27 06:35:00,
2013-02-27 01:45:00,76.0,62.9,29.85,SSW,202,4.0,9.0,64,0.00,,,-99.99,WeatherLink 5.5,2013-02-27 06:45:00,
2013-02-27 01:55:00,75.9,62.4,29.85,SW,225,2.0,7.0,63,0.00,,,-99.99,WeatherLink 5.5,2013-02-27 06:55:00,
2013-02-27 02:00:00,75.9,62.4,29.85,SW,225,2.0,8.0,63,0.00,,,-99.99,WeatherLink 5.5,2013-02-27 07:00:00,
2013-02-27 02:10:00,75.8,62.3,29.85,SW,225,2.0,8.0,63,0.00,,,-99.99,WeatherLink 5.5,2013-02-27 07:10:00,
2013-02-27 02:20:00,75.8,60.0,29.84,SSW,202,3.0,8.0,58,0.00,,,-99.99,WeatherLink 5.5,2013-02-27 07:20:00,
2013-02-27 02:25:00,75.7,58.9,29.84,SW,225,2.0,8.0,56,0.00,,,-99.99,WeatherLink 5.5,2013-02-27 07:25:00,
2013-02-27 02:35:00,75.5,56.1,29.84,SW,225,4.0,8.0,51,0.00,,,-99.99,WeatherLink 5.5,2013-02-27 07:35:00,
2013-02-27 02:40:00,75.4,54.3,29.84,SW,225,2.0,6.0,48,0.00,,,-99.99,WeatherLink 5.5,2013-02-27 07:40:00,
2013-02-27 02:50:00,75.2,51.2,29.85,SW,225,2.0,6.0,43,0.00,,,-99.99,WeatherLink 5.5,2013-02-27 07:50:00,
2013-02-27 02:55:00,75.1,49.8,29.85,SW,225,1.0,5.0,41,0.00,,,-99.99,WeatherLink 5.5,2013-02-27 07:55:00,
2013-02-27 03:05:00,75.1,44.8,29.84,SW,225,1.0,7.0,34,0.00,,,-99.99,WeatherLink 5.5,2013-02-27 08:05:00,
2013-02-27 03:10:00,75.1,39.8,29.84,SW,225,1.0,6.0,28,0.00,,,-99.99,WeatherLink 5.5,2013-02-27 08:10:00,
2013-02-27 03:20:00,74.9,27.1,29.84,SW,225,1.0,7.0,17,0.00,,,-99.99,WeatherLink 5.5,2013-02-27 08:20:00,
2013-02-27 03:30:00,74.7,20.5,29.84,WSW,247,2.0,8.0,13,0.00,,,-99.99,WeatherLink 5.5,2013-02-27 08:30:00,
2013-02-27 03:35:00,74.5,16.5,29.84,West,270,5.0,11.0,11,0.00,,,-99.99,WeatherLink 5.5,2013-02-27 08:35:00,
2013-02-27 03:45:00,74.0,5.9,29.84,WSW,247,3.0,8.0,7,0.00,,,-99.99,WeatherLink 5.5,2013-02-27 08:45:00,
2013-02-27 03:50:00,73.8,-6.1,29.84,WSW,247,1.0,7.0,4,0.00,,,-99.99,WeatherLink 5.5,2013-02-27 08:50:00,
2013-02-27 04:00:00,73.5,-99.9,29.84,WSW,247,1.0,5.0,0,0.00,,,-99.99,WeatherLink 5.5,2013-02-27 09:00:00,
2013-02-27 04:10:00,73.0,-99.9,29.84,West,270,3.0,7.0,0,0.00,,,-99.99,WeatherLink 5.5,2013-02-27 09:10:00,
2013-02-27 04:15:00,72.4,-13.0,29.84,WNW,292,3.0,8.0,3,0.01,,,-99.99,WeatherLink 5.5,2013-02-27 09:15:00,
2013-02-27 04:25:00,71.0,-99.9,29.84,WNW,292,1.0,5.0,0,0.01,,,-99.99,WeatherLink 5.5,2013-02-27 09:25:00,
2013-02-27 04:30:00,70.6,-99.9,29.85,WNW,292,0.0,3.0,0,0.01,,,-99.99,WeatherLink 5.5,2013-02-27 09:30:00,
2013-02-27 04:40:00,70.4,-99.9,29.85,WNW,292,2.0,5.0,0,0.01,,,-99.99,WeatherLink 5.5,2013-02-27 09:40:00,
2013-02-27 04:50:00,70.1,-99.9,29.85,WNW,292,0.0,4.0,0,0.01,,,-99.99,WeatherLink 5.5,2013-02-27 09:50:00,
2013-02-27 04:55:00,70.0,-99.9,29.85,WNW,292,0.0,3.0,0,0.01,,,-99.99,WeatherLink 5.5,2013-02-27 09:55:00,
2013-02-27 05:05:00,69.8,-99.9,29.86,WNW,292,0.0,2.0,0,0.01,,,-99.99,WeatherLink 5.5,2013-02-27 10:05:00,
2013-02-27 05:15:00,69.9,-99.9,29.86,WNW,292,1.0,5.0,0,0.00,,,-99.99,WeatherLink 5.5,2013-02-27 10:15:00,
2013-02-27 05:20:00,70.0,-99.9,29.86,NW,315,4.0,8.0,0,0.00,,,-99.99,WeatherLink 5.5,2013-02-27 10:20:00,
2013-02-27 05:30:00,70.1,-99.9,29.87,NW,315,1.0,6.0,0,0.00,,,-99.99,WeatherLink 5.5,2013-02-27 10:30:00,
2013-02-27 05:40:00,70.1,-99.9,29.87,NW,315,4.0,12.0,0,0.00,,,-99.99,WeatherLink 5.5,2013-02-27 10:40:00,
2013-02-27 05:50:00,70.1,-99.9,29.86,NW,315,2.0,7.0,0,0.00,,,-99.99,WeatherLink 5.5,2013-02-27 10:50:00,
2013-02-27 06:00:00,70.1,-99.9,29.87,NW,315,1.0,5.0,0,0.00,,,-99.99,WeatherLink 5.5,2013-02-27 11:00:00,
2013-02-27 06:05:00,70.1,-99.9,29.88,NW,315,2.0,7.0,0,0.00,,,-99.99,WeatherLink 5.5,2013-02-27 11:05:00,
2013-02-27 06:15:00,70.0,-99.9,29.88,NW,315,1.0,7.0,0,0.00,,,-99.99,WeatherLink 5.5,2013-02-27 11:15:00,
2013-02-27 06:20:00,70.0,-99.9,29.88,NW,315,2.0,7.0,0,0.00,,,-99.99,WeatherLink 5.5,2013-02-27 11:20:00,
2013-02-27 06:30:00,69.8,-99.9,29.88,NW,315,3.0,9.0,0,0.00,,,-99.99,WeatherLink 5.5,2013-02-27 11:30:00,
2013-02-27 06:40:00,69.6,-99.9,29.89,NW,315,3.0,11.0,0,0.00,,,-99.99,WeatherLink 5.5,2013-02-27 11:40:00,
2013-02-27 06:50:00,69.4,-99.9,29.89,NW,315,1.0,8.0,0,0.00,,,-99.99,WeatherLink 5.5,2013-02-27 11:50:00,
2013-02-27 07:00:00,69.2,-99.9,29.90,NW,315,3.0,9.0,0,0.00,,,-99.99,WeatherLink 5.5,2013-02-27 12:00:00,
2013-02-27 07:05:00,69.1,-99.9,29.90,NW,315,3.0,8.0,0,0.00,,,-99.99,WeatherLink 5.5,2013-02-27 12:05:00,
2013-02-27 07:15:00,68.9,-99.9,29.90,NW,315,3.0,7.0,0,0.00,,,-99.99,WeatherLink 5.5,2013-02-27 12:15:00,
2013-02-27 07:20:00,68.8,-99.9,29.89,NW,315,3.0,9.0,0,0.00,,,-99.99,WeatherLink 5.5,2013-02-27 12:20:00,
2013-02-27 07:30:00,68.7,-99.9,29.90,NW,315,1.0,5.0,0,0.00,,,-99.99,WeatherLink 5.5,2013-02-27 12:30:00,
2013-02-27 07:40:00,68.6,-99.9,29.90,NW,315,1.0,7.0,0,0.00,,,-99.99,WeatherLink 5.5,2013-02-27 12:40:00,
2013-02-27 07:45:00,68.6,-99.9,29.90,NW,315,2.0,6.0,0,0.00,,,-99.99,WeatherLink 5.5,2013-02-27 12:45:00,
2013-02-27 07:55:00,68.7,-99.9,29.91,NW,315,1.0,6.0,0,0.00,,,-99.99,WeatherLink 5.5,2013-02-27 12:55:00,
2013-02-27 08:05:00,68.6,68.6,29.91,NW,315,2.0,7.0,100,0.00,,,-99.99,WeatherLink 5.5,2013-02-27 13:05:00,
2013-02-27 08:15:00,68.8,68.8,29.91,NW,315,3.0,7.0,100,0.00,,,-99.99,WeatherLink 5.5,2013-02-27 13:15:00,
2013-02-27 08:20:00,68.8,68.8,29.91,NW,315,3.0,7.0,100,0.00,,,-99.99,WeatherLink 5.5,2013-02-27 13:20:00,
2013-02-27 08:30:00,69.0,69.0,29.92,NW,315,2.0,6.0,100,0.00,,,-99.99,WeatherLink 5.5,2013-02-27 13:30:00,
2013-02-27 08:40:00,69.6,69.6,29.92,NW,315,1.0,6.0,100,0.00,,,-99.99,WeatherLink 5.5,2013-02-27 13:40:00,
2013-02-27 08:50:00,69.8,69.8,29.92,NW,315,1.0,6.0,100,0.00,,,-99.99,WeatherLink 5.5,2013-02-27 13:50:00,
2013-02-27 09:00:00,70.1,70.1,29.92,NW,315,2.0,7.0,100,0.00,,,-99.99,WeatherLink 5.5,2013-02-27 14:00:00,
2013-02-27 09:05:00,70.1,70.1,29.92,NW,315,2.0,9.0,100,0.00,,,-99.99,WeatherLink 5.5,2013-02-27 14:05:00,
2013-02-27 09:15:00,70.7,70.7,29.93,NNW,337,2.0,7.0,100,0.00,,,-99.99,WeatherLink 5.5,2013-02-27 14:15:00,
2013-02-27 09:25:00,70.8,70.8,29.93,NNW,337,2.0,11.0,100,0.00,,,-99.99,WeatherLink 5.5,2013-02-27 14:25:00,
2013-02-27 09:35:00,71.0,71.0,29.93,NW,315,2.0,8.0,100,0.00,,,-99.99,WeatherLink 5.5,2013-02-27 14:35:00,
2013-02-27 09:40:00,71.4,-99.9,29.93,NW,315,0.0,5.0,0,0.00,,,-99.99,WeatherLink 5.5,2013-02-27 14:40:00,
2013-02-27 09:50:00,71.8,-99.9,29.92,NNW,337,2.0,5.0,0,0.00,,,-99.99,WeatherLink 5.5,2013-02-27 14:50:00,
2013-02-27 10:00:00,71.9,-99.9,29.92,NW,315,2.0,8.0,-999,0.00,,,-99.99,WeatherLink 5.5,2013-02-27 15:00:00,
2013-02-27 10:05:00,71.9,-99.9,29.92,NW,315,2.0,6.0,-999,0.00,,,-99.99,WeatherLink 5.5,2013-02-27 15:05:00,
2013-02-27 10:15:00,72.5,-99.9,29.93,WNW,292,2.0,9.0,0,0.00,,,-99.99,WeatherLink 5.5,2013-02-27 15:15:00,
2013-02-27 10:20:00,72.6,-99.9,29.93,WNW,292,1.0,7.0,0,0.00,,,-99.99,WeatherLink 5.5,2013-02-27 15:20:00,
2013-02-27 10:30:00,73.0,-99.9,29.93,WNW,292,1.0,5.0,0,0.00,,,-99.99,WeatherLink 5.5,2013-02-27 15:30:00,
2013-02-27 10:35:00,73.2,-99.9,29.94,NW,315,2.0,10.0,-999,0.00,,,-99.99,WeatherLink 5.5,2013-02-27 15:35:00,
2013-02-27 10:45:00,73.9,-99.9,29.93,West,270,0.0,4.0,-999,0.00,,,-99.99,WeatherLink 5.5,2013-02-27 15:45:00,
2013-02-27 10:50:00,74.2,-99.9,29.94,West,270,3.0,7.0,-999,0.00,,,-99.99,WeatherLink 5.5,2013-02-27 15:50:00,
2013-02-27 11:00:00,74.3,6.1,29.94,WNW,292,2.0,8.0,7,0.00,,,-99.99,WeatherLink 5.5,2013-02-27 16:00:00,
2013-02-27 11:05:00,74.5,-99.9,29.94,WNW,292,1.0,8.0,-999,0.00,,,-99.99,WeatherLink 5.5,2013-02-27 16:05:00,
2013-02-27 11:15:00,74.4,9.2,29.94,NW,315,2.0,5.0,8,0.00,,,-99.99,WeatherLink 5.5,2013-02-27 16:15:00,
2013-02-27 11:20:00,74.6,-0.9,29.94,North,-999,0.0,1.0,5,0.00,,,-99.99,WeatherLink 5.5,2013-02-27 16:20:00,
2013-02-27 11:30:00,74.4,-19.6,29.94,NW,315,0.0,4.0,2,0.00,,,-99.99,WeatherLink 5.5,2013-02-27 16:30:00,
2013-02-27 11:35:00,74.4,-32.6,29.94,NW,315,1.0,3.0,1,0.00,,,-99.99,WeatherLink 5.5,2013-02-27 16:35:00,
2013-02-27 11:45:00,74.5,-99.9,29.94,WNW,292,0.0,5.0,0,0.00,,,-99.99,WeatherLink 5.5,2013-02-27 16:45:00,
2013-02-27 11:55:00,74.6,-99.9,29.93,West,270,0.0,4.0,0,0.00,,,-99.99,WeatherLink 5.5,2013-02-27 16:55:00,
2013-02-27 12:05:00,75.5,-99.9,29.93,West,270,1.0,5.0,0,0.00,,,-99.99,WeatherLink 5.5,2013-02-27 17:05:00,
2013-02-27 12:10:00,75.2,-99.9,29.93,West,270,1.0,5.0,0,0.00,,,-99.99,WeatherLink 5.5,2013-02-27 17:10:00,
2013-02-27 12:20:00,74.8,74.8,29.93,West,270,0.0,5.0,100,0.00,,,-99.99,WeatherLink 5.5,2013-02-27 17:20:00,
2013-02-27 12:25:00,74.6,74.6,29.93,West,270,1.0,4.0,100,0.00,,,-99.99,WeatherLink 5.5,2013-02-27 17:25:00,
2013-02-27 12:35:00,74.5,74.5,29.93,West,270,1.0,5.0,100,0.00,,,-99.99,WeatherLink 5.5,2013-02-27 17:35:00,
2013-02-27 12:40:00,74.2,74.2,29.93,West,270,1.0,5.0,100,0.00,,,-99.99,WeatherLink 5.5,2013-02-27 17:40:00,
2013-02-27 12:50:00,74.1,74.1,29.92,West,270,0.0,3.0,100,0.00,,,-99.99,WeatherLink 5.5,2013-02-27 17:50:00,
2013-02-27 12:55:00,74.0,74.0,29.92,West,270,1.0,3.0,100,0.00,,,-99.99,WeatherLink 5.5,2013-02-27 17:55:00,
2013-02-27 13:05:00,73.6,73.6,29.92,West,270,0.0,3.0,100,0.00,,,-99.99,WeatherLink 5.5,2013-02-27 18:05:00,
2013-02-27 13:10:00,73.5,73.5,29.92,West,270,0.0,2.0,100,0.00,,,-99.99,WeatherLink 5.5,2013-02-27 18:10:00,
2013-02-27 13:20:00,72.7,72.7,29.92,WNW,292,1.0,7.0,100,0.00,,,-99.99,WeatherLink 5.5,2013-02-27 18:20:00,
2013-02-27 13:25:00,72.3,72.3,29.93,WNW,292,1.0,6.0,100,0.00,,,-99.99,WeatherLink 5.5,2013-02-27 18:25:00,
2013-02-27 13:35:00,72.3,72.3,29.92,WNW,292,2.0,6.0,100,0.00,,,-99.99,WeatherLink 5.5,2013-02-27 18:35:00,
2013-02-27 13:45:00,72.2,72.2,29.92,WNW,292,0.0,4.0,100,0.00,,,-99.99,WeatherLink 5.5,2013-02-27 18:45:00,
2013-02-27 13:55:00,72.0,72.0,29.91,WNW,292,0.0,1.0,100,0.00,,,-99.99,WeatherLink 5.5,2013-02-27 18:55:00,
2013-02-27 14:05:00,72.4,72.4,29.91,WNW,292,0.0,3.0,100,0.00,,,-99.99,WeatherLink 5.5,2013-02-27 19:05:00,
2013-02-27 14:15:00,72.6,72.6,29.91,SW,225,0.0,4.0,100,0.00,,,-99.99,WeatherLink 5.5,2013-02-27 19:15:00,
2013-02-27 14:20:00,72.5,72.5,29.91,SW,225,1.0,5.0,100,0.00,,,-99.99,WeatherLink 5.5,2013-02-27 19:20:00,
2013-02-27 14:30:00,72.0,72.0,29.91,WSW,247,1.0,5.0,100,0.00,,,-99.99,WeatherLink 5.5,2013-02-27 19:30:00,
2013-02-27 14:40:00,71.8,71.8,29.91,WSW,247,0.0,1.0,100,0.00,,,-99.99,WeatherLink 5.5,2013-02-27 19:40:00,
2013-02-27 14:50:00,71.9,71.9,29.90,WSW,247,0.0,1.0,100,0.00,,,-99.99,WeatherLink 5.5,2013-02-27 19:50:00,
2013-02-27 15:00:00,71.9,71.9,29.91,WSW,247,1.0,4.0,100,0.00,,,-99.99,WeatherLink 5.5,2013-02-27 20:00:00,
2013-02-27 15:05:00,71.8,71.8,29.90,WSW,247,0.0,3.0,100,0.00,,,-99.99,WeatherLink 5.5,2013-02-27 20:05:00,
2013-02-27 15:15:00,70.6,70.6,29.91,WSW,247,0.0,1.0,100,0.01,,,-99.99,WeatherLink 5.5,2013-02-27 20:15:00,
2013-02-27 15:25:00,69.1,69.1,29.90,North,-999,0.0,0.0,100,0.05,,,-99.99,WeatherLink 5.5,2013-02-27 20:25:00,
2013-02-27 15:35:00,68.0,68.0,29.90,North,-999,0.0,0.0,100,0.05,,,-99.99,WeatherLink 5.5,2013-02-27 20:35:00,
2013-02-27 15:45:00,67.4,67.4,29.90,WSW,247,0.0,1.0,100,0.09,,,-99.99,WeatherLink 5.5,2013-02-27 20:45:00,
2013-02-27 15:55:00,66.9,-99.9,29.90,North,-999,0.0,0.0,0,0.19,,,-99.99,WeatherLink 5.5,2013-02-27 20:55:00,
2013-02-27 16:05:00,66.6,-99.9,29.91,WSW,247,0.0,4.0,0,0.25,,,-99.99,WeatherLink 5.5,2013-02-27 21:05:00,
2013-02-27 16:15:00,66.3,-99.9,29.90,WSW,247,1.0,5.0,0,0.27,,,-99.99,WeatherLink 5.5,2013-02-27 21:15:00,
2013-02-27 16:25:00,65.7,-17.5,29.90,WSW,247,0.0,3.0,3,0.26,,,-99.99,WeatherLink 5.5,2013-02-27 21:25:00,
2013-02-27 16:35:00,65.7,7.6,29.91,WSW,247,0.0,2.0,10,0.26,,,-99.99,WeatherLink 5.5,2013-02-27 21:35:00,
2013-02-27 16:45:00,65.7,19.6,29.91,WSW,247,1.0,5.0,17,0.23,,,-99.99,WeatherLink 5.5,2013-02-27 21:45:00,
2013-02-27 16:55:00,65.3,26.5,29.91,WSW,247,0.0,4.0,23,0.14,,,-99.99,WeatherLink 5.5,2013-02-27 21:55:00,
2013-02-27 17:00:00,65.2,26.4,29.91,WSW,247,1.0,4.0,23,0.13,,,-99.99,WeatherLink 5.5,2013-02-27 22:00:00,
2013-02-27 17:10:00,65.1,32.9,29.92,WSW,247,0.0,4.0,30,0.09,,,-99.99,WeatherLink 5.5,2013-02-27 22:10:00,
2013-02-27 17:20:00,65.1,33.7,29.91,North,-999,0.0,0.0,31,0.08,,,-99.99,WeatherLink 5.5,2013-02-27 22:20:00,
2013-02-27 17:25:00,65.1,35.3,29.91,North,-999,0.0,0.0,33,0.06,,,-99.99,WeatherLink 5.5,2013-02-27 22:25:00,
2013-02-27 17:35:00,65.1,37.5,29.91,North,-999,0.0,0.0,36,0.07,,,-99.99,WeatherLink 5.5,2013-02-27 22:35:00,
2013-02-27 17:40:00,65.0,37.4,29.91,North,-999,0.0,0.0,36,0.06,,,-99.99,WeatherLink 5.5,2013-02-27 22:40:00,
2013-02-27 17:50:00,64.8,36.5,29.91,North,-999,0.0,0.0,35,0.05,,,-99.99,WeatherLink 5.5,2013-02-27 22:50:00,
2013-02-27 17:55:00,64.8,35.8,29.91,North,-999,0.0,0.0,34,0.06,,,-99.99,WeatherLink 5.5,2013-02-27 22:55:00,
2013-02-27 18:05:00,64.9,34.3,29.92,North,-999,0.0,0.0,32,0.04,,,-99.99,WeatherLink 5.5,2013-02-27 23:05:00,
2013-02-27 18:10:00,65.1,34.5,29.92,North,-999,0.0,0.0,32,0.03,,,-99.99,WeatherLink 5.5,2013-02-27 23:10:00,
2013-02-27 18:20:00,65.3,36.2,29.92,North,-999,0.0,0.0,34,0.02,,,-99.99,WeatherLink 5.5,2013-02-27 23:20:00,
2013-02-27 18:25:00,65.3,33.0,29.92,North,-999,0.0,0.0,30,0.02,,,-99.99,WeatherLink 5.5,2013-02-27 23:25:00,
2013-02-27 18:35:00,65.4,31.4,29.92,North,-999,0.0,0.0,28,0.01,,,-99.99,WeatherLink 5.5,2013-02-27 23:35:00,
2013-02-27 18:45:00,65.4,27.6,29.92,WSW,247,0.0,4.0,24,0.03,,,-99.99,WeatherLink 5.5,2013-02-27 23:45:00,
2013-02-27 18:50:00,65.4,24.4,29.92,WSW,247,0.0,1.0,21,0.05,,,-99.99,WeatherLink 5.5,2013-02-27 23:50:00,
2013-02-27 19:00:00,65.3,19.3,29.92,North,-999,0.0,0.0,17,0.05,,,-99.99,WeatherLink 5.5,2013-02-28 00:00:00,
2013-02-27 19:05:00,65.4,16.5,29.92,North,-999,0.0,0.0,15,0.05,,,-99.99,WeatherLink 5.5,2013-02-28 00:05:00,
2013-02-27 19:15:00,65.4,7.3,29.92,WSW,247,0.0,2.0,10,0.05,,,-99.99,WeatherLink 5.5,2013-02-28 00:15:00,
2013-02-27 19:20:00,65.3,7.2,29.92,WSW,247,1.0,4.0,10,0.05,,,-99.99,WeatherLink 5.5,2013-02-28 00:20:00,
2013-02-27 19:30:00,64.8,-12.4,29.93,WSW,247,1.0,4.0,4,0.05,,,-99.99,WeatherLink 5.5,2013-02-28 00:30:00,
2013-02-27 19:35:00,64.6,-38.5,29.93,WSW,247,0.0,3.0,1,0.06,,,-99.99,WeatherLink 5.5,2013-02-28 00:35:00,
2013-02-27 19:45:00,64.5,-99.9,29.93,North,-999,0.0,0.0,0,0.04,,,-99.99,WeatherLink 5.5,2013-02-28 00:45:00,
2013-02-27 19:50:00,64.5,-99.9,29.93,North,-999,0.0,0.0,0,0.02,,,-99.99,WeatherLink 5.5,2013-02-28 00:50:00,
2013-02-27 20:00:00,64.5,64.5,29.93,WSW,247,0.0,3.0,100,0.02,,,-99.99,WeatherLink 5.5,2013-02-28 01:00:00,
2013-02-27 20:05:00,64.6,64.6,29.94,North,-999,0.0,0.0,100,0.02,,,-99.99,WeatherLink 5.5,2013-02-28 01:05:00,
2013-02-27 20:15:00,64.7,64.7,29.94,North,-999,0.0,0.0,100,0.03,,,-99.99,WeatherLink 5.5,2013-02-28 01:15:00,
2013-02-27 20:20:00,64.8,64.8,29.95,WSW,247,0.0,1.0,100,0.03,,,-99.99,WeatherLink 5.5,2013-02-28 01:20:00,
2013-02-27 20:30:00,64.8,64.8,29.96,WSW,247,2.0,6.0,100,0.07,,,-99.99,WeatherLink 5.5,2013-02-28 01:30:00,
2013-02-27 20:40:00,64.8,64.8,29.96,WSW,247,1.0,5.0,100,0.08,,,-99.99,WeatherLink 5.5,2013-02-28 01:40:00,
2013-02-27 20:45:00,64.9,64.9,29.95,WSW,247,3.0,8.0,100,0.10,,,-99.99,WeatherLink 5.5,2013-02-28 01:45:00,
2013-02-27 20:55:00,64.2,64.2,29.94,WSW,247,2.0,8.0,100,0.13,,,-99.99,WeatherLink 5.5,2013-02-28 01:55:00,
2013-02-27 21:05:00,63.5,63.5,29.94,WSW,247,1.0,7.0,100,0.15,,,-99.99,WeatherLink 5.5,2013-02-28 02:05:00,
2013-02-27 21:15:00,63.2,63.2,29.94,WSW,247,1.0,6.0,100,0.15,,,-99.99,WeatherLink 5.5,2013-02-28 02:15:00,
2013-02-27 21:25:00,63.1,63.1,29.94,WSW,247,0.0,3.0,100,0.13,,,-99.99,WeatherLink 5.5,2013-02-28 02:25:00,
2013-02-27 21:30:00,62.9,62.9,29.93,WSW,247,2.0,6.0,100,0.11,,,-99.99,WeatherLink 5.5,2013-02-28 02:30:00,
2013-02-27 21:40:00,62.4,62.4,29.92,WSW,247,0.0,3.0,100,0.09,,,-99.99,WeatherLink 5.5,2013-02-28 02:40:00,
2013-02-27 21:45:00,62.2,62.2,29.92,North,-999,0.0,0.0,100,0.07,,,-99.99,WeatherLink 5.5,2013-02-28 02:45:00,
2013-02-27 21:55:00,62.5,62.5,29.93,WSW,247,0.0,2.0,100,0.04,,,-99.99,WeatherLink 5.5,2013-02-28 02:55:00,
2013-02-27 22:00:00,62.6,62.6,29.93,WSW,247,0.0,3.0,100,0.02,,,-99.99,WeatherLink 5.5,2013-02-28 03:00:00,
2013-02-27 22:10:00,62.9,62.9,29.93,WSW,247,0.0,3.0,100,0.00,,,-99.99,WeatherLink 5.5,2013-02-28 03:10:00,
2013-02-27 22:15:00,63.1,63.1,29.93,WSW,247,0.0,3.0,100,0.00,,,-99.99,WeatherLink 5.5,2013-02-28 03:15:00,
2013-02-27 22:25:00,63.5,63.5,29.94,WSW,247,0.0,4.0,100,0.00,,,-99.99,WeatherLink 5.5,2013-02-28 03:25:00,
2013-02-27 22:30:00,63.6,63.6,29.94,WSW,247,0.0,3.0,100,0.00,,,-99.99,WeatherLink 5.5,2013-02-28 03:30:00,
2013-02-27 22:40:00,63.6,63.6,29.94,North,-999,0.0,1.0,100,0.00,,,-99.99,WeatherLink 5.5,2013-02-28 03:40:00,
2013-02-27 22:45:00,63.6,63.6,29.94,WSW,247,0.0,2.0,100,0.00,,,-99.99,WeatherLink 5.5,2013-02-28 03:45:00,
2013-02-27 22:55:00,63.6,63.6,29.94,North,-999,0.0,1.0,100,0.00,,,-99.99,WeatherLink 5.5,2013-02-28 03:55:00,
2013-02-27 23:00:00,63.7,63.7,29.94,WSW,247,0.0,2.0,100,0.00,,,-99.99,WeatherLink 5.5,2013-02-28 04:00:00,
2013-02-27 23:10:00,63.9,63.9,29.94,WSW,247,0.0,4.0,100,0.00,,,-99.99,WeatherLink 5.5,2013-02-28 04:10:00,
2013-02-27 23:15:00,64.0,64.0,29.94,North,-999,0.0,0.0,100,0.00,,,-99.99,WeatherLink 5.5,2013-02-28 04:15:00,
2013-02-27 23:25:00,64.3,64.3,29.94,WSW,247,0.0,5.0,100,0.00,,,-99.99,WeatherLink 5.5,2013-02-28 04:25:00,
2013-02-27 23:35:00,64.6,64.6,29.94,WSW,247,1.0,6.0,100,0.00,,,-99.99,WeatherLink 5.5,2013-02-28 04:35:00,
2013-02-27 23:45:00,64.7,64.7,29.94,WSW,247,1.0,7.0,100,0.00,,,-99.99,WeatherLink 5.5,2013-02-28 04:45:00,
2013-02-27 23:50:00,64.7,64.7,29.94,WSW,247,2.0,6.0,100,0.00,,,-99.99,WeatherLink 5.5,2013-02-28 04:50:00,